FW8702 Weather Reports


time (UTC)temp
C
wind
direction
speed
KPH
gust
KPH
rain 1hr
cm
rain 24hr
cm
rain mn
cm
humidity
%
barometer
mb
20260905174604 26 284 0.0 1.6 0.00 0.00 0.00 74 1017.7
20260905173016 26 275 0.0 6.4 0.00 0.00 0.00 75 1017.5
20260905171546 27 71 1.6 3.2 0.00 0.00 0.00 72 1017.4
20260905170038 28 273 0.0 0.0 0.00 0.00 0.00 72 1017.4
20260905164525 28 273 0.0 3.2 0.00 0.00 0.00 67 1017.3
20260905163119 29 284 0.0 3.2 0.00 0.00 0.00 66 1017.3
20260905161602 30 46 0.0 0.0 0.00 0.00 0.00 59 1017.3
20260905160046 30 46 0.0 1.6 0.00 0.00 0.00 56 1017.3
20260905154548 30 86 0.0 3.2 0.00 0.00 0.00 52 1017.3
20260905153020 30 75 0.0 4.8 0.00 0.00 0.00 55 1017.3
20260905151539 30 100 1.6 3.2 0.00 0.00 0.00 52 1017.4
20260905150013 30 82 1.6 4.8 0.00 0.00 0.00 53 1017.4
20260905144550 30 85 1.6 4.8 0.00 0.00 0.00 54 1017.5
20260905143044 31 108 3.2 6.4 0.00 0.00 0.00 52 1017.5
20260905141505 31 223 1.6 4.8 0.00 0.00 0.00 53 1017.4
20260905140045 31 113 1.6 6.4 0.00 0.00 0.00 52 1017.4
20260905134557 30 269 0.0 9.7 0.00 0.00 0.00 57 1017.6
20260905133001 31 232 4.8 8.0 0.00 0.00 0.00 54 1017.7
20260905131533 30 217 0.0 8.0 0.00 0.00 0.00 54 1017.9
20260905130041 31 188 3.2 8.0 0.00 0.00 0.00 54 1018.0
20260905124604 30 234 0.0 6.4 0.00 0.00 0.00 54 1018.1
20260905123003 30 227 3.2 6.4 0.00 0.00 0.00 53 1018.2
20260905121605 30 279 1.6 9.7 0.00 0.00 0.00 55 1018.3
20260905120042 30 83 0.0 6.4 0.00 0.00 0.00 54 1018.4
20260905114546 29 280 0.0 4.8 0.00 0.00 0.00 56 1018.4
20260905113015 29 298 1.6 6.4 0.00 0.00 0.00 56 1018.7
20260905111605 28 242 3.2 8.0 0.00 0.00 0.00 57 1018.7
20260905110015 28 252 3.2 6.4 0.00 0.00 0.00 60 1018.6
20260905104524 28 233 0.0 3.2 0.00 0.00 0.00 60 1018.5
20260905103013 27 226 1.6 8.0 0.00 0.00 0.00 60 1018.7
20260905101557 27 248 3.2 6.4 0.00 0.00 0.00 61 1018.7
20260905100031 26 277 3.2 11.3 0.00 0.00 0.00 63 1018.6
20260905094600 26 277 3.2 12.9 0.00 0.00 0.00 64 1018.9
20260905093106 26 245 3.2 8.0 0.00 0.00 0.00 66 1018.7
20260905091524 27 200 0.0 3.2 0.00 0.00 0.00 62 1018.7
20260905090036 26 84 1.6 6.4 0.00 0.00 0.00 62 1018.7
20260905084512 26 208 3.2 6.4 0.00 0.00 0.00 61 1018.7
20260905083018 25 272 4.8 6.4 0.00 0.00 0.00 61 1018.5
20260905081550 26 279 1.6 11.3 0.00 0.00 0.00 63 1018.6
20260905080036 25 285 0.0 4.8 0.00 0.00 0.00 67 1018.7
20260905074548 25 272 4.8 8.0 0.00 0.00 0.00 63 1018.4
20260905073021 23 281 3.2 6.4 0.00 0.00 0.00 69 1018.3
20260905071555 23 294 3.2 6.4 0.00 0.00 0.00 73 1018.4
20260905070024 23 308 0.0 6.4 0.00 0.00 0.00 73 1018.4
20260905064538 22 281 1.6 4.8 0.00 0.00 0.00 74 1018.3
20260905063100 22 314 1.6 4.8 0.00 0.00 0.00 75 1018.3
20260905061529 22 3 1.6 4.8 0.00 0.00 0.00 74 1018.2
20260905060019 22 341 1.6 8.0 0.00 0.00 0.00 74 1018.2
20260905054554 21 279 1.6 6.4 0.00 0.00 0.00 76 1018.1
20260905053101 20 317 1.6 9.7 0.00 0.00 0.00 79 1018.2
20260905051558 20 284 0.0 9.7 0.00 0.00 0.00 80 1017.9
20260905050031 20 281 0.0 3.2 0.00 0.00 0.00 79 1017.7
20260905044603 20 281 0.0 4.8 0.00 0.00 0.00 79 1017.5
20260905043025 20 281 0.0 8.0 0.00 0.00 0.00 78 1017.6
20260905041519 21 304 1.6 3.2 0.00 0.00 0.00 76 1017.4
20260905040040 21 296 0.0 3.2 0.00 0.00 0.00 75 1017.4
20260905034524 21 281 0.0 8.0 0.00 0.00 0.00 77 1017.6
20260905033016 20 261 1.6 8.0 0.00 0.00 0.00 80 1017.4
20260905031521 20 332 1.6 8.0 0.00 0.00 0.00 81 1017.6
20260905030027 20 269 0.0 4.8 0.00 0.00 0.00 80 1017.7
20260905024602 20 268 0.0 3.2 0.00 0.00 0.00 78 1017.7
20260905023024 21 326 1.6 4.8 0.00 0.00 0.00 77 1017.7
20260905021512 21 275 1.6 6.4 0.00 0.00 0.00 76 1017.6
20260905020051 21 279 0.0 6.4 0.00 0.00 0.00 77 1017.8
20260905014518 21 324 1.6 8.0 0.00 0.00 0.00 80 1018.0
20260905013103 21 339 1.6 6.4 0.00 0.00 0.00 80 1018.1
20260905011506 21 329 0.0 4.8 0.00 0.00 0.00 81 1018.1
20260905004529 20 262 0.0 4.8 0.00 0.00 0.00 83 1018.1
20260905003048 20 289 0.0 6.4 0.00 0.00 0.00 82 1018.2
20260905001518 20 275 0.0 1.6 0.00 0.00 0.00 83 1018.3
20260905000045 20 269 1.6 3.2 0.00 0.00 0.00 83 1018.4
20260904234526 20 276 0.0 3.2 0.00 0.00 0.00 83 1018.5
20260904233025 20 273 1.6 3.2 0.00 0.00 0.00 83 1018.5
20260904231607 20 302 0.0 4.8 0.00 0.00 0.00 83 1018.7
20260904230034 20 276 3.2 6.4 0.00 0.00 0.00 82 1018.5
20260904224547 20 310 0.0 1.6 0.00 0.00 0.00 82 1018.6
20260904223038 20 68 0.0 3.2 0.00 0.00 0.00 82 1018.7
20260904221533 20 314 0.0 1.6 0.00 0.00 0.00 81 1018.8
20260904220104 21 319 0.0 3.2 0.00 0.00 0.00 81 1018.7
20260904214547 21 294 0.0 0.0 0.00 0.00 0.00 81 1018.8
20260904213025 21 285 0.0 3.2 0.00 0.00 0.00 80 1018.8
20260904211516 21 283 0.0 0.0 0.00 0.00 0.00 80 1018.9
20260904210022 21 283 0.0 4.8 0.00 0.00 0.00 80 1018.8
20260904204515 21 81 0.0 6.4 0.00 0.00 0.00 81 1018.8
20260904203103 21 88 1.6 3.2 0.00 0.00 0.00 80 1019.0
20260904201511 21 295 1.6 6.4 0.00 0.00 0.00 79 1019.0
20260904200026 22 282 1.6 3.2 0.00 0.00 0.00 79 1018.9
20260904194502 22 292 0.0 3.2 0.00 0.00 0.00 79 1018.8
20260904193057 22 285 0.0 0.0 0.00 0.00 0.00 79 1018.7
20260904191533 22 296 0.0 3.2 0.00 0.00 0.00 78 1018.6
20260904190045 23 338 0.0 4.8 0.00 0.00 0.00 77 1018.4
20260904184513 23 277 0.0 1.6 0.00 0.00 0.00 76 1018.4
20260904183101 23 277 0.0 3.2 0.00 0.00 0.00 75 1018.2
20260904181515 24 302 0.0 3.2 0.00 0.00 0.00 73 1018.2
20260904180036 26 281 0.0 0.0 0.00 0.00 0.00 72 1018.1